Showing default

HULIANWANG DIGUI-114, 66953

Orbit data source: Space-Track

HULIANWANG DIGUI-114, 66953 is a payload satellite owned by Zhongguo Xingwang (CN) in LEO that was launched on Mon, 08 Dec 2025 UTC via a CHANG ZHENG 6A launch vehicle from the Taiyaun Space Center, China (TSC). Payload-class satellites include a variety of spacecraft equipped with specific instruments for various scientific and technological missions. These include communications satellites like Starlink; space stations such as the ISS; scientific satellites like the Hubble; Earth observation satellites from companies like Planet Labs, Umbra, and HawkEye 360; GPS; miniature CubeSats for education and research; and military/defense satellites.

Loading next visibility...
Identifier
66953, 2025-287A
Orbit
LEO
Country
Flag of CNCN / PRC
Related business
Manufacturer
CAST
Mission
Operational Civil Communications
Bus & Motor
XINGWANG C, Unknown motor
Mass
~700 kg wet, ~700 kg dry
Launch date (UTC)
2025-12-08 (6 months ago)
Launch vehicle
CHANG ZHENG 6A
Launch site
Taiyaun Space Center, China (TSC)
Object type
Payload
Rocket body
Debris
Shape & HBR
Box + 2 Pan, 14.5 m
Radar Cross Section
5.935 m², Large (>1 m²)

Expand to show TLE details & history
Last TLE update: 11 hours ago

TLE from 11 hours ago
0 HULIANWANG DIGUI-114
1 66953U 25287A   26171.39040089  .00000049  00000-0  81061-4 0  9996
2 66953  86.4937 281.2839 0002073 109.1636 250.9722 13.24411998 25768
Epoch: 2026-06-20T09:22Z
TLE epoch observation values (Epoch: 2026-06-20T09:22:10.636Z)
Latitude
-0.0001°
Longitude
-127.86613°
Altitude
1,171.319 km
Speed
7.267 km/s
True Right ascension
18h 45m 08s
True Declination
0° 00' 00"
Sunlit
Object was in full shadow at epoch
Visualization orbit readout
Latitude
Unknown
Longitude
Unknown
Altitude
Unknown
Speed
Unknown
Apparent Right ascension
Unknown
Apparent Declination
Unknown
Sunlit
N/A
Visualization observer readout
Local Sidereal Time
07:18:21
Azimuth
Unknown
Elevation
Unknown
Doppler factor
Unknown
Orbital elements
Apogee altitude
1,166.598 km
Perigee altitude
1,163.471 km
Semi-major axis
7,543.172 km
Eccentricity
0.00021
Inclination
86.4937°
RAAN
281.2839°
Arg. of periapsis
109.1636°
True anomaly
250.94975°
Mean anomaly
250.9722°
Eccentric anomaly
250.96097°
Mean motion
3.31293 °/min
Orbital period
108.67 mins
BSTAR
0.000081061
Loading maneuver chart data...
Computing Atmospheric mass density...
Loading historical data...
Loading historical data...
Loading historical data...
Loading historical data...
Loading historical data...
Loading historical data...
Loading historical data...

Documentation

Showing up to 5 results
|